Jerome, ID

6:14 PM MDT on May 22, 2018 (GMT -0600)
Jerome County

Weather History for KJER - November, 2013

Change the Weather History Date:

Tuesday, November 5, 2013

  Actual Average Record
Temperature  
Mean Temperature 31 °F 41 °F  
Max Temperature 43 °F 51 °F 75 °F (1949)
Min Temperature 18 °F 32 °F 11 °F (1959)
Degree Days  
Heating Degree Days 34 24  
Month to date heating degree days 136 114  
Since 1 July heating degree days 827 813  
Cooling Degree Days 0 0  
Month to date cooling degree days 0 0  
Year to date cooling degree days 904 510  
Moisture  
Dew Point 25 °F    
Average Humidity 73    
Maximum Humidity 100    
Minimum Humidity 45    
Precipitation  
Precipitation T in 0.03 in 0.31 in (1994)
Month to date precipitation 0.04 0.15  
Year to date precipitation 3.14 8.25  
Sea Level Pressure  
Sea Level Pressure 30.30 in    
Wind  
Wind Speed 6 mph (WSW)    
Max Wind Speed 14 mph    
Max Gust Speed 16 mph    
Visibility 10 miles    
Events Rain    
T = Trace of Precipitation, MM = Missing Value Source: NWS Daily Summary

Daily Weather History Graph

Daily Weather History Graph

Search for Another Location

Airport or City:

Astronomy

Nov. 05, 2013 Rise Set
Actual Time 7:17 AM MST 5:25 PM MST
Civil Twilight 6:47 AM MST 5:54 PM MST
Nautical Twilight 6:13 AM MST 6:28 PM MST
Astronomical Twilight 5:40 AM MST 7:01 PM MST
Moon 9:38 AM MST (11/5) 7:28 PM MST (11/5)
Length of Visible Light 11h 07m
Length of Day
10h 07m
Waxing Crescent, 7% of the Moon is Illuminated
Nov 5
Waxing Crescent
Nov 9
First Quarter
Nov 17
Full
Nov 25
Last Quarter
Dec 2
New

Hourly Weather History & Observations

Time (MST) Temp. Windchill Dew Point Humidity Pressure Visibility Wind Dir Wind Speed Gust Speed Precip Events Conditions
12:53 AM 25.0 °F 18.1 °F 24.1 °F 96% 30.20 in 10.0 mi SW 5.8 mph - N/A   Clear
1:53 AM 25.0 °F 16.3 °F 24.1 °F 96% 30.22 in 10.0 mi SW 8.1 mph - N/A   Clear
2:53 AM 23.0 °F 15.8 °F 21.9 °F 96% 30.23 in 10.0 mi WSW 5.8 mph - N/A   Clear
3:53 AM 24.1 °F 19.7 °F 21.9 °F 91% 30.24 in 10.0 mi SSW 3.5 mph - N/A   Clear
4:53 AM 21.9 °F 17.2 °F 21.9 °F 100% 30.27 in 10.0 mi South 3.5 mph - N/A   Clear
5:53 AM 23.0 °F 15.8 °F 21.0 °F 92% 30.30 in 10.0 mi SW 5.8 mph - N/A   Clear
6:53 AM 19.0 °F 13.9 °F 18.0 °F 96% 30.32 in 10.0 mi SE 3.5 mph - N/A   Clear
7:53 AM 19.9 °F 14.9 °F 18.0 °F 92% 30.36 in 10.0 mi SSE 3.5 mph - N/A   Clear
8:53 AM 26.1 °F 19.4 °F 21.9 °F 84% 30.37 in 10.0 mi SSE 5.8 mph - N/A   Clear
9:53 AM 30.0 °F 25.2 °F 24.1 °F 79% 30.36 in 10.0 mi South 4.6 mph - N/A   Clear
10:53 AM 34.0 °F 29.8 °F 24.1 °F 67% 30.36 in 10.0 mi WSW 4.6 mph - N/A   Clear
11:53 AM 37.9 °F 31.5 °F 19.9 °F 48% 30.35 in 10.0 mi SW 9.2 mph - N/A   Clear
12:53 PM 39.9 °F 35.8 °F 21.0 °F 47% 30.32 in 10.0 mi WSW 5.8 mph - N/A   Partly Cloudy
1:53 PM 41.0 °F 35.8 °F 21.9 °F 47% 30.31 in 10.0 mi WSW 8.1 mph - N/A   Mostly Cloudy
2:53 PM 43.0 °F 38.8 °F 23.0 °F 45% 30.30 in 10.0 mi West 6.9 mph - N/A   Overcast
3:53 PM 42.1 °F - 23.0 °F 47% 30.29 in 10.0 mi Calm Calm - N/A   Overcast
4:53 PM 42.1 °F 39.2 °F 24.1 °F 49% 30.29 in 10.0 mi North 4.6 mph - N/A   Overcast
5:53 PM 39.9 °F 35.1 °F 26.1 °F 58% 30.29 in 10.0 mi North 6.9 mph - N/A   Overcast
6:53 PM 37.9 °F 31.5 °F 25.0 °F 60% 30.31 in 10.0 mi NE 9.2 mph - N/A   Overcast
7:53 PM 37.9 °F 31.5 °F 26.1 °F 62% 30.32 in 10.0 mi NNE 9.2 mph - N/A   Overcast
8:53 PM 37.0 °F 31.0 °F 28.0 °F 70% 30.32 in 10.0 mi North 8.1 mph - N/A   Overcast
9:46 PM 36.0 °F 30.3 °F 33.1 °F 89% 30.27 in 10.0 mi NNW 6.9 mph - 0.00 in Rain Light Rain
9:53 PM 36.0 °F 31.1 °F 34.0 °F 93% 30.33 in 10.0 mi North 5.8 mph - 0.00 in Rain Light Rain
10:53 PM 35.1 °F 32.2 °F 34.0 °F 96% 30.32 in 10.0 mi NE 3.5 mph - 0.00 in   Overcast
11:53 PM 36.0 °F 33.3 °F 34.0 °F 93% 30.32 in 10.0 mi North 3.5 mph - N/A   Overcast